Time,TemperatureF,DewpointF,PressureIn,WindDirection,WindDirectionDegrees,WindSpeedMPH,WindSpeedGustMPH,Humidity,HourlyPrecipIn,Conditions,Clouds,dailyrainin,SoftwareType,DateUTC
2013-05-26 00:01:00,49.1,38.2,29.95,NNW,338,2.0,6.0,66,0.00,,,0.00,Wunderground PWS Mod,2013-05-26 04:01:00,
2013-05-26 00:11:00,49.1,38.6,29.95,NNW,347,2.0,2.0,67,0.00,,,0.00,Wunderground PWS Mod,2013-05-26 04:11:00,
2013-05-26 00:15:00,48.8,38.7,29.94,NNW,338,2.0,6.0,68,0.00,,,0.00,Wunderground PWS Mod,2013-05-26 04:15:00,
2013-05-26 00:21:00,48.9,38.8,29.94,WNW,288,2.0,2.0,68,0.00,,,0.00,Wunderground PWS Mod,2013-05-26 04:21:00,
2013-05-26 00:31:00,48.8,38.7,29.95,NNW,332,2.0,2.0,68,0.00,,,0.00,Wunderground PWS Mod,2013-05-26 04:31:00,
2013-05-26 00:41:00,48.8,38.7,29.95,North,351,2.0,2.0,68,0.00,,,0.00,Wunderground PWS Mod,2013-05-26 04:41:00,
2013-05-26 00:51:00,49.0,38.9,29.94,NW,314,2.0,4.0,68,0.00,,,0.00,Wunderground PWS Mod,2013-05-26 04:51:00,
2013-05-26 01:01:00,49.0,39.3,29.93,North,360,1.0,4.0,69,0.00,,,0.00,Wunderground PWS Mod,2013-05-26 05:01:00,
2013-05-26 01:11:00,49.2,38.7,29.93,North,5,2.0,6.0,67,0.00,,,0.00,Wunderground PWS Mod,2013-05-26 05:11:00,
2013-05-26 01:15:00,48.9,39.5,29.92,NNW,338,1.0,6.0,70,0.00,,,0.00,Wunderground PWS Mod,2013-05-26 05:15:00,
2013-05-26 01:21:00,49.1,39.4,29.93,NNW,332,1.0,6.0,69,0.00,,,0.00,Wunderground PWS Mod,2013-05-26 05:21:00,
2013-05-26 01:31:00,48.9,39.5,29.93,NNW,333,1.0,6.0,70,0.00,,,0.00,Wunderground PWS Mod,2013-05-26 05:31:00,
2013-05-26 01:41:00,49.1,39.4,29.92,NNW,329,2.0,6.0,69,0.00,,,0.00,Wunderground PWS Mod,2013-05-26 05:41:00,
2013-05-26 01:51:00,49.5,39.0,29.92,NNW,347,2.0,2.0,67,0.00,,,0.00,Wunderground PWS Mod,2013-05-26 05:51:00,
2013-05-26 02:01:00,49.7,38.8,29.91,NNW,329,2.0,2.0,66,0.00,,,0.00,Wunderground PWS Mod,2013-05-26 06:01:00,
2013-05-26 02:11:00,49.6,39.5,29.91,NNW,336,2.0,6.0,68,0.00,,,0.00,Wunderground PWS Mod,2013-05-26 06:11:00,
2013-05-26 02:15:00,49.8,39.3,29.91,NNW,338,2.0,9.0,67,0.00,,,0.00,Wunderground PWS Mod,2013-05-26 06:15:00,
2013-05-26 02:20:00,49.7,39.2,29.91,NNW,348,3.0,6.0,67,0.00,,,0.00,Wunderground PWS Mod,2013-05-26 06:20:00,
2013-05-26 02:31:00,49.8,39.3,29.91,NNW,341,2.0,2.0,67,0.00,,,0.00,Wunderground PWS Mod,2013-05-26 06:31:00,
2013-05-26 02:41:00,49.9,39.0,29.91,NE,42,2.0,6.0,66,0.00,,,0.00,Wunderground PWS Mod,2013-05-26 06:41:00,
2013-05-26 02:51:00,50.0,39.1,29.91,NNW,330,2.0,6.0,66,0.00,,,0.00,Wunderground PWS Mod,2013-05-26 06:51:00,
2013-05-26 03:01:00,50.2,38.9,29.91,NNW,338,2.0,6.0,65,0.00,,,0.00,Wunderground PWS Mod,2013-05-26 07:01:00,
2013-05-26 03:11:00,50.5,39.2,29.91,West,271,2.0,2.0,65,0.00,,,0.00,Wunderground PWS Mod,2013-05-26 07:11:00,
2013-05-26 03:15:00,50.9,38.7,29.91,North,0,2.0,6.0,63,0.00,,,0.00,Wunderground PWS Mod,2013-05-26 07:15:00,
2013-05-26 03:20:00,50.7,38.6,29.91,NNW,333,2.0,9.0,63,0.00,,,0.00,Wunderground PWS Mod,2013-05-26 07:20:00,
2013-05-26 03:31:00,51.0,38.4,29.91,NNW,340,2.0,9.0,62,0.00,,,0.00,Wunderground PWS Mod,2013-05-26 07:31:00,
2013-05-26 03:41:00,51.1,38.5,29.91,WSW,256,3.0,3.0,62,0.00,,,0.00,Wunderground PWS Mod,2013-05-26 07:41:00,
2013-05-26 03:51:00,50.8,39.1,29.91,NNW,334,1.0,9.0,64,0.00,,,0.00,Wunderground PWS Mod,2013-05-26 07:51:00,
2013-05-26 04:01:00,50.5,39.2,29.90,NW,315,2.0,9.0,65,0.00,,,0.00,Wunderground PWS Mod,2013-05-26 08:01:00,
2013-05-26 04:11:00,50.3,39.0,29.90,NW,320,2.0,8.0,65,0.00,,,0.00,Wunderground PWS Mod,2013-05-26 08:11:00,
2013-05-26 04:15:00,50.0,39.5,29.90,NW,315,2.0,6.0,67,0.00,,,0.00,Wunderground PWS Mod,2013-05-26 08:15:00,
2013-05-26 04:21:00,50.3,39.0,29.90,North,360,2.0,8.0,65,0.00,,,0.00,Wunderground PWS Mod,2013-05-26 08:21:00,
2013-05-26 04:31:00,49.9,39.0,29.90,NW,323,2.0,2.0,66,0.00,,,0.00,Wunderground PWS Mod,2013-05-26 08:31:00,
2013-05-26 04:40:00,49.6,39.1,29.90,North,360,2.0,8.0,67,0.00,,,0.00,Wunderground PWS Mod,2013-05-26 08:40:00,
2013-05-26 04:50:00,49.6,39.5,29.90,NNW,335,2.0,2.0,68,0.00,,,0.00,Wunderground PWS Mod,2013-05-26 08:50:00,
2013-05-26 05:01:00,49.4,40.0,29.91,North,360,1.0,8.0,70,0.00,,,0.00,Wunderground PWS Mod,2013-05-26 09:01:00,
2013-05-26 05:11:00,49.3,39.2,29.92,NW,321,1.0,6.0,68,0.00,,,0.00,Wunderground PWS Mod,2013-05-26 09:11:00,
2013-05-26 05:15:00,49.8,38.9,29.92,NNW,338,2.0,7.0,66,0.00,,,0.00,Wunderground PWS Mod,2013-05-26 09:15:00,
2013-05-26 05:21:00,49.5,39.0,29.92,NNW,330,2.0,6.0,67,0.00,,,0.00,Wunderground PWS Mod,2013-05-26 09:21:00,
2013-05-26 05:31:00,49.8,39.7,29.92,NNE,16,2.0,6.0,68,0.00,,,0.00,Wunderground PWS Mod,2013-05-26 09:31:00,
2013-05-26 05:41:00,49.9,39.4,29.92,NW,325,3.0,6.0,67,0.00,,,0.00,Wunderground PWS Mod,2013-05-26 09:41:00,
2013-05-26 05:51:00,49.9,39.0,29.93,NNW,338,3.0,3.0,66,0.00,,,0.00,Wunderground PWS Mod,2013-05-26 09:51:00,
2013-05-26 06:00:00,49.7,39.6,29.93,North,355,1.0,6.0,68,0.00,,,0.00,Wunderground PWS Mod,2013-05-26 10:00:00,
2013-05-26 06:11:00,49.5,39.4,29.93,NNW,336,2.0,2.0,68,0.00,,,0.00,Wunderground PWS Mod,2013-05-26 10:11:00,
2013-05-26 06:15:00,49.6,39.8,29.94,NNW,338,2.0,7.0,69,0.00,,,0.00,Wunderground PWS Mod,2013-05-26 10:15:00,
2013-05-26 06:21:00,49.5,39.7,29.94,NNW,348,2.0,2.0,69,0.00,,,0.00,Wunderground PWS Mod,2013-05-26 10:21:00,
2013-05-26 06:31:00,49.6,39.8,29.94,NNW,331,2.0,2.0,69,0.00,,,0.00,Wunderground PWS Mod,2013-05-26 10:31:00,
2013-05-26 06:41:00,49.7,39.6,29.94,NNW,336,2.0,8.0,68,0.00,,,0.00,Wunderground PWS Mod,2013-05-26 10:41:00,
2013-05-26 06:51:00,49.8,39.7,29.95,North,360,2.0,8.0,68,0.00,,,0.00,Wunderground PWS Mod,2013-05-26 10:51:00,
2013-05-26 07:01:00,49.9,39.8,29.95,NW,314,3.0,3.0,68,0.00,,,0.00,Wunderground PWS Mod,2013-05-26 11:01:00,
2013-05-26 07:11:00,49.9,40.1,29.95,NNW,340,2.0,2.0,69,0.00,,,0.00,Wunderground PWS Mod,2013-05-26 11:11:00,
2013-05-26 07:15:00,50.5,40.3,29.96,NNW,338,2.0,7.0,68,0.00,,,0.00,Wunderground PWS Mod,2013-05-26 11:15:00,
2013-05-26 07:21:00,50.2,40.4,29.96,NNW,348,2.0,2.0,69,0.00,,,0.00,Wunderground PWS Mod,2013-05-26 11:21:00,
2013-05-26 07:31:00,50.5,39.9,29.96,NW,311,2.0,7.0,67,0.00,,,0.00,Wunderground PWS Mod,2013-05-26 11:31:00,
2013-05-26 07:41:00,50.7,40.5,29.96,NW,323,2.0,7.0,68,0.00,,,0.00,Wunderground PWS Mod,2013-05-26 11:41:00,
2013-05-26 07:51:00,50.7,39.7,29.97,NNW,339,2.0,2.0,66,0.00,,,0.00,Wunderground PWS Mod,2013-05-26 11:51:00,
2013-05-26 08:01:00,50.8,40.6,29.97,NNW,341,2.0,2.0,68,0.00,,,0.00,Wunderground PWS Mod,2013-05-26 12:01:00,
2013-05-26 08:11:00,50.9,39.9,29.98,NNW,333,2.0,2.0,66,0.00,,,0.00,Wunderground PWS Mod,2013-05-26 12:11:00,
2013-05-26 08:15:00,51.3,41.1,29.99,NNW,338,1.0,6.0,68,0.00,,,0.00,Wunderground PWS Mod,2013-05-26 12:15:00,
2013-05-26 08:21:00,51.0,40.4,29.98,NNE,28,1.0,9.0,67,0.00,,,0.00,Wunderground PWS Mod,2013-05-26 12:21:00,
2013-05-26 08:31:00,51.3,39.9,29.99,NW,320,1.0,9.0,65,0.00,,,0.00,Wunderground PWS Mod,2013-05-26 12:31:00,
2013-05-26 08:41:00,51.6,40.6,29.99,North,360,1.0,9.0,66,0.00,,,0.00,Wunderground PWS Mod,2013-05-26 12:41:00,
2013-05-26 08:51:00,51.9,40.5,30.00,NW,306,3.0,3.0,65,0.00,,,0.00,Wunderground PWS Mod,2013-05-26 12:51:00,
2013-05-26 09:01:00,52.1,40.3,30.00,North,349,2.0,9.0,64,0.00,,,0.00,Wunderground PWS Mod,2013-05-26 13:01:00,
2013-05-26 09:11:00,52.0,41.4,30.00,NNW,340,2.0,7.0,67,0.00,,,0.00,Wunderground PWS Mod,2013-05-26 13:11:00,
2013-05-26 09:15:00,52.4,40.6,30.00,NNW,338,2.0,7.0,64,0.00,,,0.00,Wunderground PWS Mod,2013-05-26 13:15:00,
2013-05-26 09:20:00,52.3,41.3,30.00,NNW,341,2.0,2.0,66,0.00,,,0.00,Wunderground PWS Mod,2013-05-26 13:20:00,
2013-05-26 09:31:00,52.5,41.1,30.00,NNW,340,2.0,7.0,65,0.00,,,0.00,Wunderground PWS Mod,2013-05-26 13:31:00,
2013-05-26 09:40:00,53.4,41.9,30.00,North,355,2.0,7.0,65,0.00,,,0.00,Wunderground PWS Mod,2013-05-26 13:40:00,
2013-05-26 09:50:00,53.5,40.8,30.00,West,265,2.0,2.0,62,0.00,,,0.00,Wunderground PWS Mod,2013-05-26 13:50:00,
2013-05-26 10:01:00,55.3,42.5,30.00,NNW,347,2.0,2.0,62,0.00,,,0.00,Wunderground PWS Mod,2013-05-26 14:01:00,
2013-05-26 10:11:00,56.4,44.0,30.00,NNW,341,2.0,7.0,63,0.00,,,0.00,Wunderground PWS Mod,2013-05-26 14:11:00,
2013-05-26 10:15:00,55.8,43.0,30.00,NNW,338,2.0,9.0,62,0.00,,,0.00,Wunderground PWS Mod,2013-05-26 14:15:00,
2013-05-26 10:21:00,55.4,42.6,30.01,North,360,2.0,2.0,62,0.00,,,0.00,Wunderground PWS Mod,2013-05-26 14:21:00,
2013-05-26 10:31:00,55.9,43.1,30.00,NNW,345,2.0,2.0,62,0.00,,,0.00,Wunderground PWS Mod,2013-05-26 14:31:00,
2013-05-26 10:40:00,56.6,44.1,30.01,NNW,348,1.0,1.0,63,0.00,,,0.00,Wunderground PWS Mod,2013-05-26 14:40:00,
2013-05-26 10:50:00,55.9,41.8,30.01,NW,325,3.0,7.0,59,0.00,,,0.00,Wunderground PWS Mod,2013-05-26 14:50:00,
2013-05-26 11:01:00,56.2,43.8,30.01,North,11,2.0,2.0,63,0.00,,,0.00,Wunderground PWS Mod,2013-05-26 15:01:00,
2013-05-26 11:11:00,58.0,43.3,30.01,NW,308,2.0,8.0,58,0.00,,,0.00,Wunderground PWS Mod,2013-05-26 15:11:00,
2013-05-26 11:15:00,57.5,42.4,30.01,NNW,338,2.0,7.0,57,0.00,,,0.00,Wunderground PWS Mod,2013-05-26 15:15:00,
2013-05-26 11:21:00,58.3,41.7,30.01,NNW,345,3.0,3.0,54,0.00,,,0.00,Wunderground PWS Mod,2013-05-26 15:21:00,
2013-05-26 11:31:00,57.3,42.2,30.01,WNW,284,2.0,8.0,57,0.00,,,0.00,Wunderground PWS Mod,2013-05-26 15:31:00,
2013-05-26 11:41:00,57.7,43.0,30.01,NNW,327,2.0,8.0,58,0.00,,,0.00,Wunderground PWS Mod,2013-05-26 15:41:00,
2013-05-26 11:51:00,58.4,42.3,30.02,NW,309,3.0,8.0,55,0.00,,,0.00,Wunderground PWS Mod,2013-05-26 15:51:00,
2013-05-26 12:01:00,57.6,42.9,30.02,NW,320,2.0,8.0,58,0.00,,,0.00,Wunderground PWS Mod,2013-05-26 16:01:00,
2013-05-26 12:11:00,56.7,43.8,30.02,NNW,330,3.0,8.0,62,0.00,,,0.00,Wunderground PWS Mod,2013-05-26 16:11:00,
2013-05-26 12:15:00,57.1,42.5,30.02,NNW,338,4.0,12.0,58,0.00,,,0.00,Wunderground PWS Mod,2013-05-26 16:15:00,
2013-05-26 12:21:00,57.0,41.4,30.01,NW,315,4.0,8.0,56,0.00,,,0.00,Wunderground PWS Mod,2013-05-26 16:21:00,
2013-05-26 12:31:00,57.3,42.6,30.02,NNW,331,3.0,8.0,58,0.00,,,0.00,Wunderground PWS Mod,2013-05-26 16:31:00,
2013-05-26 12:41:00,58.6,42.0,30.02,NNW,342,4.0,8.0,54,0.00,,,0.00,Wunderground PWS Mod,2013-05-26 16:41:00,
2013-05-26 12:51:00,58.7,40.6,30.02,NW,319,3.0,8.0,51,0.00,,,0.00,Wunderground PWS Mod,2013-05-26 16:51:00,
2013-05-26 13:01:00,58.8,41.7,30.03,WNW,282,3.0,8.0,53,0.00,,,0.00,Wunderground PWS Mod,2013-05-26 17:01:00,
2013-05-26 13:11:00,59.1,42.0,30.03,North,355,3.0,3.0,53,0.00,,,0.00,Wunderground PWS Mod,2013-05-26 17:11:00,
2013-05-26 13:15:00,57.8,40.8,30.03,NNW,338,3.0,13.0,53,0.00,,,0.00,Wunderground PWS Mod,2013-05-26 17:15:00,
2013-05-26 13:21:00,58.2,42.1,30.03,NNW,328,3.0,16.0,55,0.00,,,0.00,Wunderground PWS Mod,2013-05-26 17:21:00,
2013-05-26 13:31:00,57.8,40.8,30.04,NNW,334,4.0,4.0,53,0.00,,,0.00,Wunderground PWS Mod,2013-05-26 17:31:00,
2013-05-26 13:41:00,58.0,41.9,30.04,SSE,149,3.0,16.0,55,0.00,,,0.00,Wunderground PWS Mod,2013-05-26 17:41:00,
2013-05-26 13:51:00,58.0,41.4,30.05,NNW,341,2.0,16.0,54,0.00,,,0.00,Wunderground PWS Mod,2013-05-26 17:51:00,
2013-05-26 14:01:00,57.5,41.0,30.04,NW,321,3.0,3.0,54,0.00,,,0.00,Wunderground PWS Mod,2013-05-26 18:01:00,
2013-05-26 14:11:00,57.7,40.7,30.04,NNW,336,3.0,8.0,53,0.00,,,0.00,Wunderground PWS Mod,2013-05-26 18:11:00,
2013-05-26 14:15:00,58.4,40.3,30.05,NNW,338,3.0,9.0,51,0.00,,,0.00,Wunderground PWS Mod,2013-05-26 18:15:00,
2013-05-26 14:21:00,57.7,40.2,30.05,NNW,340,4.0,8.0,52,0.00,,,0.00,Wunderground PWS Mod,2013-05-26 18:21:00,
2013-05-26 14:31:00,58.5,40.4,30.04,NW,321,2.0,8.0,51,0.00,,,0.00,Wunderground PWS Mod,2013-05-26 18:31:00,
2013-05-26 14:40:00,58.8,40.7,30.04,NW,319,2.0,8.0,51,0.00,,,0.00,Wunderground PWS Mod,2013-05-26 18:40:00,
2013-05-26 14:51:00,58.8,40.7,30.06,NW,324,3.0,8.0,51,0.00,,,0.00,Wunderground PWS Mod,2013-05-26 18:51:00,
2013-05-26 15:01:00,58.1,40.1,30.06,North,5,4.0,8.0,51,0.00,,,0.00,Wunderground PWS Mod,2013-05-26 19:01:00,
2013-05-26 15:11:00,58.0,40.0,30.06,NW,313,4.0,4.0,51,0.00,,,0.00,Wunderground PWS Mod,2013-05-26 19:11:00,
2013-05-26 15:15:00,58.8,41.2,30.07,NNW,338,4.0,11.0,52,0.00,,,0.00,Wunderground PWS Mod,2013-05-26 19:15:00,
2013-05-26 15:21:00,58.6,41.0,30.07,NNW,330,4.0,10.0,52,0.00,,,0.00,Wunderground PWS Mod,2013-05-26 19:21:00,
2013-05-26 15:30:00,58.7,40.6,30.07,NW,311,4.0,10.0,51,0.00,,,0.00,Wunderground PWS Mod,2013-05-26 19:30:00,
2013-05-26 15:41:00,58.7,40.6,30.07,NW,321,4.0,4.0,51,0.00,,,0.00,Wunderground PWS Mod,2013-05-26 19:41:00,
2013-05-26 15:51:00,59.2,41.1,30.07,WNW,303,3.0,10.0,51,0.00,,,0.00,Wunderground PWS Mod,2013-05-26 19:51:00,
2013-05-26 16:01:00,59.0,41.4,30.07,NNW,348,3.0,10.0,52,0.00,,,0.00,Wunderground PWS Mod,2013-05-26 20:01:00,
2013-05-26 16:11:00,59.3,40.7,30.07,WNW,292,4.0,4.0,50,0.00,,,0.00,Wunderground PWS Mod,2013-05-26 20:11:00,
2013-05-26 16:15:00,59.2,40.0,30.08,NNW,338,3.0,11.0,49,0.00,,,0.00,Wunderground PWS Mod,2013-05-26 20:15:00,
2013-05-26 16:21:00,59.3,40.7,30.08,NW,323,4.0,4.0,50,0.00,,,0.00,Wunderground PWS Mod,2013-05-26 20:21:00,
2013-05-26 16:31:00,59.1,39.4,30.08,North,10,3.0,13.0,48,0.00,,,0.00,Wunderground PWS Mod,2013-05-26 20:31:00,
2013-05-26 16:41:00,59.4,38.6,30.08,North,360,4.0,13.0,46,0.00,,,0.00,Wunderground PWS Mod,2013-05-26 20:41:00,
2013-05-26 16:51:00,59.7,40.0,30.08,NNE,13,4.0,4.0,48,0.00,,,0.00,Wunderground PWS Mod,2013-05-26 20:51:00,
2013-05-26 17:01:00,59.4,40.2,30.08,North,5,1.0,13.0,49,0.00,,,0.00,Wunderground PWS Mod,2013-05-26 21:01:00,
2013-05-26 17:11:00,59.1,40.5,30.08,North,360,2.0,10.0,50,0.00,,,0.00,Wunderground PWS Mod,2013-05-26 21:11:00,
2013-05-26 17:15:00,59.9,39.6,30.08,NNW,338,2.0,6.0,47,0.00,,,0.00,Wunderground PWS Mod,2013-05-26 21:15:00,
2013-05-26 17:21:00,59.6,39.9,30.08,NE,53,2.0,10.0,48,0.00,,,0.00,Wunderground PWS Mod,2013-05-26 21:21:00,
2013-05-26 17:31:00,59.9,40.1,30.09,North,5,3.0,10.0,48,0.00,,,0.00,Wunderground PWS Mod,2013-05-26 21:31:00,
2013-05-26 17:41:00,60.0,38.6,30.08,NNW,348,3.0,10.0,45,0.00,,,0.00,Wunderground PWS Mod,2013-05-26 21:41:00,
2013-05-26 17:51:00,60.2,38.8,30.08,North,360,2.0,2.0,45,0.00,,,0.00,Wunderground PWS Mod,2013-05-26 21:51:00,
2013-05-26 18:01:00,60.7,38.6,30.09,NNW,336,2.0,10.0,44,0.00,,,0.00,Wunderground PWS Mod,2013-05-26 22:01:00,
2013-05-26 18:11:00,61.1,38.4,30.09,NW,319,2.0,2.0,43,0.00,,,0.00,Wunderground PWS Mod,2013-05-26 22:11:00,
2013-05-26 18:15:00,61.3,38.6,30.09,NNW,338,2.0,9.0,43,0.00,,,0.00,Wunderground PWS Mod,2013-05-26 22:15:00,
2013-05-26 18:21:00,61.3,38.0,30.09,NNW,331,2.0,13.0,42,0.00,,,0.00,Wunderground PWS Mod,2013-05-26 22:21:00,
2013-05-26 18:31:00,61.3,38.6,30.09,NW,321,3.0,3.0,43,0.00,,,0.00,Wunderground PWS Mod,2013-05-26 22:31:00,
2013-05-26 18:41:00,61.1,37.2,30.10,NW,324,2.0,13.0,41,0.00,,,0.00,Wunderground PWS Mod,2013-05-26 22:41:00,
2013-05-26 18:51:00,60.8,37.5,30.10,NW,324,3.0,13.0,42,0.00,,,0.00,Wunderground PWS Mod,2013-05-26 22:51:00,
2013-05-26 19:01:00,60.6,38.6,30.11,NW,317,2.0,13.0,44,0.00,,,0.00,Wunderground PWS Mod,2013-05-26 23:01:00,
2013-05-26 19:11:00,60.4,37.8,30.11,NNW,330,1.0,9.0,43,0.00,,,0.00,Wunderground PWS Mod,2013-05-26 23:11:00,
2013-05-26 19:15:00,59.8,38.4,30.11,North,0,2.0,7.0,45,0.00,,,0.00,Wunderground PWS Mod,2013-05-26 23:15:00,
2013-05-26 19:21:00,60.2,38.2,30.11,North,355,2.0,9.0,44,0.00,,,0.00,Wunderground PWS Mod,2013-05-26 23:21:00,
2013-05-26 19:31:00,59.8,39.5,30.11,North,350,1.0,9.0,47,0.00,,,0.00,Wunderground PWS Mod,2013-05-26 23:31:00,
2013-05-26 19:41:00,59.1,38.9,30.12,WNW,299,1.0,9.0,47,0.00,,,0.00,Wunderground PWS Mod,2013-05-26 23:41:00,
2013-05-26 19:51:00,58.9,38.1,30.13,SW,236,2.0,2.0,46,0.00,,,0.00,Wunderground PWS Mod,2013-05-26 23:51:00,
2013-05-26 20:01:00,58.5,38.9,30.13,North,5,1.0,1.0,48,0.00,,,0.00,Wunderground PWS Mod,2013-05-27 00:01:00,
2013-05-26 20:11:00,57.5,38.5,30.12,SSE,156,0.0,5.0,49,0.00,,,0.00,Wunderground PWS Mod,2013-05-27 00:11:00,
2013-05-26 20:15:00,57.0,38.0,30.13,North,0,0.0,5.0,49,0.00,,,0.00,Wunderground PWS Mod,2013-05-27 00:15:00,
2013-05-26 20:20:00,57.4,38.4,30.13,North,360,1.0,5.0,49,0.00,,,0.00,Wunderground PWS Mod,2013-05-27 00:20:00,
2013-05-26 20:31:00,57.0,37.5,30.13,WNW,299,0.0,5.0,48,0.00,,,0.00,Wunderground PWS Mod,2013-05-27 00:31:00,
2013-05-26 20:41:00,57.4,38.4,30.13,North,5,1.0,1.0,49,0.00,,,0.00,Wunderground PWS Mod,2013-05-27 00:41:00,
2013-05-26 20:51:00,56.9,37.9,30.13,NNE,12,1.0,1.0,49,0.00,,,0.00,Wunderground PWS Mod,2013-05-27 00:51:00,
2013-05-26 21:01:00,56.5,38.1,30.13,NNE,12,0.0,5.0,50,0.00,,,0.00,Wunderground PWS Mod,2013-05-27 01:01:00,
2013-05-26 21:11:00,56.2,37.8,30.13,NNE,19,0.0,4.0,50,0.00,,,0.00,Wunderground PWS Mod,2013-05-27 01:11:00,
2013-05-26 21:15:00,55.6,38.7,30.13,NNE,23,0.0,3.0,53,0.00,,,0.00,Wunderground PWS Mod,2013-05-27 01:15:00,
2013-05-26 21:20:00,55.9,37.5,30.13,NNE,19,0.0,4.0,50,0.00,,,0.00,Wunderground PWS Mod,2013-05-27 01:20:00,
2013-05-26 21:31:00,55.5,38.6,30.13,NNE,19,0.0,4.0,53,0.00,,,0.00,Wunderground PWS Mod,2013-05-27 01:31:00,
2013-05-26 21:40:00,55.1,37.8,30.14,NNE,19,0.0,4.0,52,0.00,,,0.00,Wunderground PWS Mod,2013-05-27 01:40:00,
2013-05-26 21:51:00,55.1,37.8,30.15,NNE,19,0.0,4.0,52,0.00,,,0.00,Wunderground PWS Mod,2013-05-27 01:51:00,
2013-05-26 22:01:00,55.2,38.4,30.15,NNE,19,1.0,1.0,53,0.00,,,0.00,Wunderground PWS Mod,2013-05-27 02:01:00,
2013-05-26 22:11:00,54.7,37.9,30.15,NNE,19,0.0,2.0,53,0.00,,,0.00,Wunderground PWS Mod,2013-05-27 02:11:00,
2013-05-26 22:15:00,53.4,38.5,30.16,NNE,23,0.0,1.0,57,0.00,,,0.00,Wunderground PWS Mod,2013-05-27 02:15:00,
2013-05-26 22:21:00,54.1,38.7,30.16,NNE,19,0.0,2.0,56,0.00,,,0.00,Wunderground PWS Mod,2013-05-27 02:21:00,
2013-05-26 22:31:00,53.2,38.4,30.16,NNE,19,0.0,2.0,57,0.00,,,0.00,Wunderground PWS Mod,2013-05-27 02:31:00,
2013-05-26 22:41:00,52.4,39.8,30.17,NNE,19,0.0,2.0,62,0.00,,,0.00,Wunderground PWS Mod,2013-05-27 02:41:00,
2013-05-26 22:51:00,51.7,39.5,30.17,NNE,19,0.0,2.0,63,0.00,,,0.00,Wunderground PWS Mod,2013-05-27 02:51:00,
2013-05-26 23:01:00,50.8,39.5,30.17,NNE,19,0.0,2.0,65,0.00,,,0.00,Wunderground PWS Mod,2013-05-27 03:01:00,
2013-05-26 23:11:00,50.0,39.5,30.17,NNE,19,0.0,0.0,67,0.00,,,0.00,Wunderground PWS Mod,2013-05-27 03:11:00,
2013-05-26 23:15:00,48.6,39.6,30.17,N/A,-737280,0.0,0.0,71,0.00,,,0.00,Wunderground PWS Mod,2013-05-27 03:15:00,
2013-05-26 23:21:00,49.3,39.2,30.17,NNE,19,0.0,0.0,68,0.00,,,0.00,Wunderground PWS Mod,2013-05-27 03:21:00,
2013-05-26 23:31:00,48.5,39.5,30.17,NNE,19,0.0,0.0,71,0.00,,,0.00,Wunderground PWS Mod,2013-05-27 03:31:00,
2013-05-26 23:41:00,47.8,39.6,30.17,NNE,19,0.0,0.0,73,0.00,,,0.00,Wunderground PWS Mod,2013-05-27 03:41:00,
2013-05-26 23:51:00,47.2,40.0,30.17,NNE,19,0.0,0.0,76,0.00,,,0.00,Wunderground PWS Mod,2013-05-27 03:51:00,